Regional Weather Roundup
Issued by NWS

Home | Current Version | Previous Version | Graphics & Text | Print | Product List | Glossary Off
Versions: 1 2 3 4 5 6 7 8 9 10 11 12 13 14 15 16 17 18 19 20 21 22 23 24 25 26 27 28 29 30 31 32 33 34 35 36 37 38 39 40 41 42 43 44 45 46 47 48 49 50

880
ASUS43 KLSX 270910
RWRMO

WEATHER SUMMARY FOR MISSOURI
NATIONAL WEATHER SERVICE SPRINGFIELD MO
400 AM CDT THU APR 27 2017

NOTE: "FAIR" INDICATES FEW OR NO CLOUDS BELOW 12,000 FEET WITH NO
       SIGNIFICANT WEATHER AND/OR OBSTRUCTIONS TO VISIBILITY.
       CURRENT SKY AND/OR WEATHER CONDITIONS ARE NOT AVAILABLE FOR
       CHILLICOTHE AND FARMINGTON.

MOZ001>031-035>038-043-044-053-054-271000-
...NORTHERN AND WESTERN MISSOURI...

CITY           SKY/WX    TMP DP  RH WIND       PRES   REMARKS
KANSAS CTY INT CLOUDY    42  33  70 NW13      29.67R
KANSAS C DTWN  CLOUDY    44  34  67 NW10      29.68R
LEE`S SUMMIT   CLOUDY    42  35  76 NW9       29.67S
ST JOSEPH      CLOUDY    43  34  70 W7        29.67R
CHILLICOTHE      N/A     42  35  76 VRB7      29.64R
KIRKSVILLE     CLOUDY    41 N/A N/A W9        29.59R

$$
MOZ066>068-077>081-088>096-101>105-271000-
...SOUTHWEST MISSOURI...

CITY           SKY/WX    TMP DP  RH WIND       PRES   REMARKS
SPRINGFIELD    CLOUDY    43  40  89 W8        29.68R
JOPLIN         CLEAR     40  39  97 SW5       29.73R
BRANSON        PTCLDY    41  39  93 CALM      29.71R

$$
MOZ032>034-039>042-045>050-055>058-069>072-271000-
...CENTRAL MISSOURI...

CITY           SKY/WX    TMP DP  RH WIND       PRES   REMARKS
COLUMBIA       CLOUDY    43  42  97 W8        29.62R
JEFFERSON CITY CLOUDY    46  40  79 W13       29.64R
ROLLA          CLOUDY    43  42  97 W10       29.62R
SEDALIA        CLOUDY    44  41  89 W9        29.66R
WHITEMAN AFB   CLOUDY    42  42 100 W12       29.65R
OSAGE BEACH    CLOUDY    44  40  85 W6        29.67R

$$
MOZ051-052-059>065-271000-
...EAST CENTRAL MISSOURI...

CITY           SKY/WX    TMP DP  RH WIND       PRES   REMARKS
ST LOUIS INTL  CLOUDY    49  45  86 W15       29.55R
SPIRIT OF STL  CLOUDY    48  46  93 W15G21    29.56R
ST CHARLES     CLOUDY    49  46  90 W14       29.54R

$$
MOZ072>076-082>087-097>100-106>115-271000-
...SOUTH CENTRAL AND SOUTHEAST MISSOURI...

CITY           SKY/WX    TMP DP  RH WIND       PRES   REMARKS
CAPE GIRARDEAU CLOUDY    50  46  86 W12       29.60R
FARMINGTON     CLOUDY    46  44  93 W7        29.60R
POPLAR BLUFF   CLOUDY    49  46  90 W8        29.63R
WEST PLAINS    LGT RAIN  45  42  89 W8        29.66R

$$




USA.gov is the U.S. government's official web portal to all federal, state and local government web resources and services.